User: anonymous   Login
Location: Unspecified
(37.2036°N, 0.0000°E)
Time: 23:29:22
(UTC+00:00)
Language:

H-2A R/B - Orbit

View from above orbital plane
View from above orbital plane
View from above satellite
View from above satellite

Ground track
Ground track

The orbit is defined by the following mean orbital elements,

1 27601U          26087.88908954 +.00000000 +00000-0 +12554-3 0 00003
2 27601  98.3234  47.5275 0071365 104.1133 267.6834 14.33773303    02
Epoch (UTC): 28 March 2026 21:20:17
Eccentricity: 0.0071365
inclination: 98.3234°
perigee height: 728 km
apogee height: 830 km
right ascension of ascending node: 47.5275°
argument of perigee: 104.1133°
revolutions per day: 14.33773303
mean anomaly at epoch: 267.6834°

The dashed part of the orbit path shows where the satellite is in the earth's shadow,  

DLR